Location: Sungai Apap
(2.6167°N, 113.3833°E)
Time: 21:32:10
(UTC+00:00)

Cosmos 1892 Rocket - Pass Details

Date: 10 August 2024
Orbit: 602 x 629 km, 82.5° (Epoch: 12 September)

Event Time Altitude Azimuth Distance (km) Brightness Sun altitude
Rises 11:39:29 0° 184° (S) 2,909 6.9 -15.6°
Reaches altitude 10° 11:41:43 10° 184° (S) 1,997 6.0 -16.1°
Maximum altitude 11:46:09 88° 269° (W) 626 3.5 -17.2°
Drops below altitude 10° 11:50:32 10° 3° (N) 1,974 6.3 -18.2°
Sets 11:52:45 0° 3° (N) 2,872 7.2 -18.7°
